Overview Statistics Trail Chart Weather Telemetry Raw packets
 

This is the latest recevied weather packets stored in our database for station/object W7BTL. If no packets are shown the sender has not sent any weather packets the latest 10 day(s).

<< 1 2 3 4 >>
Time Temp. Humidity Pressure Rain* Wind** Luminosity Snow
1788662402 25° C 50% 1011.6 hPa 0 mm - 0 W/m² -
1788662098 25.56° C 52% 1011.5 hPa 0 mm - 0 W/m² -
1788661793 25.56° C 52% 1011.6 hPa 0 mm - 0 W/m² -
1788661488 25.56° C 52% 1011.6 hPa 0 mm - 1 W/m² -
1788661184 25.56° C 51% 1011.5 hPa 0 mm - 2 W/m² -
1788660884 25.56° C 53% 1011.7 hPa 0 mm - 3 W/m² -
1788660578 26.11° C 53% 1011.6 hPa 0 mm - 5 W/m² -
1788660273 26.11° C 50% 1011.7 hPa 0 mm - 8 W/m² -
1788659967 26.11° C 50% 1011.8 hPa 0 mm - 10 W/m² -
1788659667 26.11° C 51% 1011.8 hPa 0 mm - 14 W/m² -
1788659366 26.67° C 48% 1011.6 hPa 0 mm - 19 W/m² -
1788659066 26.67° C 49% 1011.8 hPa 0 mm - 25 W/m² -
1788658762 27.22° C 51% 1011.3 hPa 0 mm - 31 W/m² -
1788658458 27.22° C 50% 1011.4 hPa 0 mm - 37 W/m² -
1788658154 27.78° C 49% 1011.7 hPa 0 mm - 44 W/m² -
1788657848 28.33° C 46% 1011.5 hPa 0 mm - 53 W/m² -
1788657547 28.33° C 46% 1011.4 hPa 0 mm - 77 W/m² -
1788657243 28.89° C 47% 1011.5 hPa 0 mm - 95 W/m² -
1788656938 28.89° C 45% 1011.4 hPa 0 mm - 117 W/m² -
1788656634 28.89° C 46% 1011.3 hPa 0 mm - 126 W/m² -
1788656330 28.33° C 48% 1011.4 hPa 0 mm - 113 W/m² -
1788656029 28.33° C 46% 1011.3 hPa 0 mm - 130 W/m² -
1788655727 28.89° C 44% 1011.4 hPa 0 mm - 99 W/m² -
1788655427 29.44° C 42% 1011.4 hPa 0 mm - 113 W/m² -
1788655122 29.44° C 43% 1011.4 hPa 0 mm - 156 W/m² -

* Rain latest hour (hover to see other rain measurements)
** Current wind speed in m/s (hover to see current wind gust speed)